Theta_e
327 329 331 332 331 331 331 330 332 331 327 327 327 328 329 332 333 330 328 327 321 323 326 323 321 321 320 320 319 318 317 317 318 318 317 317 316 316 318 320 321 323 325 324 325 327 328 330 331 331 332 332 333 333 333 333 332 331 330 330 330 330 329 329 329 328 328 327 327 327 327 327 327 326 325 323 318 315 315 314 315 317 318 320 320 319
327 331 331 329 329 329 330 329 329 329 328 328 328 328 329 331 333 331 329 325 319 321 325 324 322 321 320 320 319 318 318 319 318 317 317 316 316 315 316 318 320 321 323 324 325 325 327 329 330 331 331 332 333 333 333 333 333 332 331 331 331 330 330 329 329 329 328 327 327 327 327 326 327 326 325 324 320 317 316 314 314 317 318 319 321 320
329 331 329 327 327 328 328 328 328 329 329 330 330 330 331 332 331 330 328 321 317 320 327 327 324 322 321 319 320 320 319 319 318 318 319 318 317 315 315 315 317 320 323 325 326 324 325 328 329 330 331 331 332 332 333 333 333 333 332 332 331 330 330 330 329 329 328 328 327 327 327 326 326 326 325 324 322 320 319 317 316 316 318 319 319 320
332 330 327 326 327 328 329 328 328 328 329 332 333 332 333 333 332 334 331 322 318 321 326 327 325 323 322 320 320 320 319 320 320 321 320 320 319 317 316 315 316 318 321 323 326 325 324 326 328 329 330 331 332 331 332 333 333 333 332 332 332 331 330 330 329 329 329 329 328 327 326 326 326 326 326 326 325 324 323 322 319 317 317 319 318 319
332 329 327 327 328 328 329 328 328 329 330 331 332 332 333 333 332 335 331 322 321 323 321 322 326 327 324 323 322 320 319 320 320 321 321 322 321 320 320 319 317 316 318 320 324 325 323 325 327 328 330 330 331 331 332 332 333 333 333 332 332 331 331 330 330 330 329 328 328 327 326 326 326 326 325 326 325 325 324 324 321 319 318 318 318 318
330 328 327 328 328 327 328 329 328 329 331 332 331 331 332 332 333 332 327 323 325 329 324 321 329 335 332 327 325 321 320 320 318 319 320 320 321 321 321 320 319 316 316 318 321 323 323 324 326 328 329 330 330 331 331 332 333 333 332 332 332 331 331 331 330 330 329 328 328 327 327 326 326 326 325 325 325 324 324 323 321 320 318 318 319 320
329 327 326 327 327 327 328 328 328 328 331 332 330 329 331 333 334 330 324 326 331 333 327 320 327 337 334 328 327 324 322 322 320 320 320 318 318 320 320 319 319 317 315 316 318 321 321 323 326 327 328 330 330 331 331 332 332 332 332 332 332 332 331 331 331 330 329 329 328 328 327 327 326 326 325 325 325 324 323 322 322 320 319 318 320 322
328 327 327 327 327 328 329 328 328 327 330 332 330 329 330 332 334 330 325 329 333 332 327 320 322 330 329 326 326 326 325 325 324 323 321 319 318 318 319 319 319 318 316 315 316 319 321 322 324 326 327 329 330 330 331 331 331 332 332 332 332 332 331 331 331 331 330 329 329 328 328 327 327 326 326 326 325 325 324 323 323 322 321 320 321 323
327 327 327 327 328 328 328 327 327 327 329 331 330 329 328 330 335 332 330 331 330 331 332 325 321 326 330 330 327 324 326 329 327 326 324 322 320 318 318 318 318 318 317 316 315 316 317 319 323 326 327 328 329 330 330 331 331 331 331 332 331 331 331 331 331 331 331 330 330 329 329 328 328 327 327 326 326 325 325 325 324 324 323 323 323 325
327 327 326 326 328 328 327 327 327 326 329 329 329 330 330 331 334 333 335 334 330 331 335 329 324 329 335 336 330 324 326 329 326 324 323 323 322 320 318 318 318 318 318 317 316 314 314 317 322 325 326 328 329 329 330 330 330 330 330 331 331 331 331 331 331 331 331 331 331 330 330 329 329 328 327 327 326 326 326 326 326 325 325 325 326 326
328 326 325 326 326 326 326 326 326 326 328 329 330 332 332 331 331 332 333 332 332 333 335 331 326 329 335 335 331 327 329 329 325 323 322 320 321 320 318 318 318 318 319 318 316 313 312 314 319 324 326 327 328 329 329 329 329 330 330 330 330 331 331 330 331 331 331 331 331 331 331 330 330 329 328 328 327 327 328 327 327 327 327 327 327 328
328 327 328 328 327 327 327 326 326 327 328 331 333 333 332 330 330 331 329 329 335 336 332 331 327 328 333 332 329 329 328 327 324 323 323 322 321 320 319 319 318 318 319 319 318 315 314 315 317 321 325 326 327 328 328 329 329 329 329 329 330 330 330 330 330 330 331 331 331 331 331 331 330 330 329 329 328 328 328 328 328 328 328 328 328 328
327 327 328 328 326 326 327 328 327 325 326 330 332 332 332 332 331 333 332 331 336 333 325 325 327 328 331 329 327 328 326 326 325 321 321 322 321 321 321 321 320 320 320 320 319 317 317 318 317 319 323 325 326 327 328 328 328 329 329 329 329 329 329 329 329 329 330 330 331 331 330 331 330 330 329 329 328 329 329 329 329 329 329 329 329 329
328 327 327 327 326 326 327 330 328 326 326 328 328 330 331 333 334 335 334 333 334 330 322 321 327 329 329 329 328 325 323 325 324 321 320 321 321 322 323 322 323 324 323 321 319 317 318 318 315 317 322 324 325 326 327 328 328 328 329 328 328 329 329 329 329 329 329 330 330 331 330 330 330 330 329 329 328 328 328 329 329 329 329 329 329 329
329 330 328 327 328 327 327 328 328 327 327 327 327 329 329 331 333 332 333 334 333 329 322 321 327 331 332 330 326 324 324 323 322 321 320 318 319 320 321 321 324 327 325 324 320 317 316 313 311 315 319 322 324 326 326 327 328 328 328 328 328 329 329 328 328 328 328 329 329 330 330 330 330 330 329 329 328 328 328 329 329 329 330 329 329 329
329 331 329 326 327 326 326 326 324 326 328 326 328 329 328 330 332 330 329 331 330 328 324 323 326 330 330 326 321 320 322 321 320 318 317 317 317 318 320 320 321 321 323 328 326 322 317 310 308 311 314 319 323 324 326 326 327 327 327 327 328 328 328 328 328 328 328 328 329 329 330 330 330 330 329 329 328 328 328 328 329 329 329 329 329 329
328 331 328 326 327 325 324 326 322 325 329 326 328 330 327 329 333 331 326 324 328 330 327 325 326 328 328 325 321 321 323 323 322 319 319 321 319 317 319 320 321 321 322 328 331 328 322 311 307 309 310 314 318 321 324 325 326 327 327 327 327 327 328 327 327 328 328 328 328 328 329 329 329 329 329 329 328 328 328 328 328 329 329 329 329 329
329 332 328 326 329 325 323 325 323 324 327 326 327 328 324 327 333 335 330 326 328 330 329 326 326 327 328 328 325 323 324 323 322 321 321 323 322 321 322 321 322 322 320 324 328 327 322 311 305 308 309 310 314 317 321 323 325 327 326 327 327 326 327 327 327 328 328 328 328 328 329 329 329 329 329 329 329 328 328 328 328 328 328 328 329 329
330 332 328 326 328 327 324 327 327 326 326 326 326 324 327 330 331 333 332 329 329 329 330 329 326 325 325 326 326 324 325 324 321 321 323 323 323 323 326 326 322 320 319 323 326 326 325 313 305 307 310 310 311 312 315 318 321 324 325 326 327 327 327 327 327 327 327 328 328 328 328 329 329 329 329 329 329 328 328 328 328 328 328 328 329 329
328 329 329 327 326 327 327 328 329 328 327 327 324 323 328 329 328 329 327 329 331 326 327 328 327 328 325 321 322 323 326 326 324 325 326 326 323 321 322 325 324 321 321 326 327 328 330 316 304 306 309 309 311 311 312 314 317 320 323 325 326 326 327 327 326 327 327 327 327 327 328 328 328 329 329 329 329 329 329 328 328 328 328 328 328 329
326 326 328 326 323 327 330 328 328 328 327 328 326 326 328 326 328 329 326 332 335 327 328 328 324 329 330 321 319 321 321 323 323 323 323 325 326 324 321 320 323 322 323 331 334 336 337 318 304 306 309 309 310 311 311 312 313 317 320 323 325 325 325 326 326 326 326 326 326 327 327 328 328 328 328 329 329 329 329 329 328 328 328 328 328 329
324 325 327 326 324 329 331 327 325 326 325 326 327 326 327 326 327 329 328 332 333 328 333 332 324 328 330 320 317 319 320 320 321 321 323 325 329 331 325 320 320 321 328 339 340 341 339 319 307 309 311 310 311 310 310 310 310 312 314 318 321 323 324 325 325 326 326 326 326 327 327 327 327 328 328 329 329 329 329 329 329 329 328 329 329 328
326 326 326 325 326 327 326 324 325 325 324 326 328 326 326 326 326 328 329 329 328 328 333 333 328 328 324 317 316 319 319 319 320 322 323 325 328 330 327 324 324 325 332 338 336 338 328 310 306 311 311 312 313 311 311 311 310 310 310 312 314 316 319 321 322 323 324 325 326 326 327 327 327 328 328 328 328 329 329 329 329 330 329 329 329 328
325 325 324 324 325 323 322 322 323 324 324 327 328 326 326 326 324 326 330 329 328 328 328 329 329 327 322 320 318 317 318 318 318 320 321 323 327 328 328 330 333 332 331 330 328 329 317 304 307 310 308 310 311 311 312 311 311 311 311 311 311 311 312 313 315 317 318 320 322 323 325 325 326 327 327 328 328 328 329 329 329 329 329 329 329 328
325 324 323 325 326 324 324 324 324 323 324 326 327 325 325 325 325 328 330 329 328 328 327 328 329 325 323 323 319 316 317 317 317 319 320 322 327 330 328 329 331 331 329 326 324 324 319 314 315 310 305 308 309 309 311 310 310 311 310 311 311 311 311 311 311 313 313 315 316 317 319 320 321 323 323 324 326 326 327 328 328 328 328 328 328 328
324 323 323 325 328 327 327 327 327 326 325 326 325 325 325 325 325 326 327 327 327 328 327 327 327 322 319 318 317 315 316 317 316 317 317 318 322 326 326 326 329 330 329 327 326 325 322 322 320 310 303 306 308 308 310 309 309 309 309 309 310 310 311 311 311 311 311 312 314 314 316 317 318 319 320 322 323 324 325 326 326 327 327 327 327 327
323 323 322 323 326 328 326 326 328 327 326 326 325 324 325 325 325 325 326 326 326 327 326 326 326 324 321 319 319 318 320 320 317 314 316 317 319 320 321 323 326 325 325 326 325 324 324 325 326 315 303 304 308 308 308 309 308 309 309 309 309 309 309 309 309 310 310 311 312 313 315 317 318 320 321 322 323 324 325 325 325 326 326 327 327 327
323 323 321 320 322 325 325 324 326 326 325 325 325 324 324 325 325 325 326 326 325 326 327 325 324 325 325 324 326 326 325 324 319 316 317 318 317 317 318 321 323 322 323 324 322 326 328 327 331 322 304 301 308 308 308 309 309 309 310 309 309 309 308 309 309 309 310 310 311 313 315 317 320 321 322 323 323 324 324 324 325 325 325 326 326 327
323 323 321 320 320 322 322 322 324 325 324 324 325 324 324 325 325 325 325 325 325 326 326 324 325 325 323 324 328 329 324 320 319 316 314 312 313 315 316 319 323 323 323 322 321 325 327 327 333 328 307 301 307 308 308 310 309 310 310 309 310 310 310 310 311 311 311 311 311 312 314 316 318 319 320 321 321 322 322 322 322 323 323 323 324 325
323 322 320 319 320 320 321 321 322 322 323 324 324 324 323 323 324 325 325 324 324 325 324 324 325 324 321 321 323 323 320 319 319 316 312 311 314 316 317 320 323 322 320 319 318 320 324 327 332 324 305 299 305 308 309 310 310 310 310 310 310 311 311 311 311 312 313 313 313 313 314 315 315 315 315 315 315 316 316 317 318 319 320 320 320 321
323 322 318 318 320 320 320 321 321 322 322 323 324 324 324 324 324 324 325 324 324 325 325 324 325 324 321 320 321 320 320 321 322 319 316 316 317 318 320 321 322 320 316 315 315 317 320 325 331 327 311 302 305 308 309 310 310 310 310 310 310 311 311 311 311 312 313 314 314 314 314 313 312 312 311 310 310 310 310 312 314 315 316 317 318 319
321 320 317 317 320 321 320 320 321 321 322 323 324 324 324 324 324 323 324 324 324 325 325 325 326 324 321 321 322 322 322 321 321 320 318 317 317 318 320 320 318 317 314 312 312 316 319 324 331 331 317 305 304 308 309 309 310 310 310 310 310 311 311 311 311 311 312 312 313 312 312 311 309 308 307 306 306 307 308 310 312 313 315 316 317 318
317 317 316 318 321 322 320 319 320 321 322 323 324 324 323 323 323 323 323 324 323 324 325 326 325 323 322 322 322 323 322 320 319 319 318 317 315 315 318 318 316 315 314 311 310 313 318 321 321 315 308 305 307 310 310 309 310 310 310 310 310 310 311 311 311 311 311 311 310 309 309 308 307 306 305 304 304 305 307 308 310 311 313 314 315 316
314 316 316 317 321 323 321 318 319 321 324 326 325 323 322 322 322 323 323 323 322 322 323 324 323 323 324 323 321 321 320 318 318 318 319 319 316 315 317 318 316 314 313 311 309 310 314 315 310 305 306 308 310 310 310 310 310 310 310 310 310 310 311 310 310 309 309 309 308 307 307 305 304 304 303 302 302 303 305 306 308 309 311 312 313 313
312 315 316 316 320 322 321 319 322 323 323 325 326 324 321 321 322 323 323 322 322 322 322 322 322 322 323 322 321 321 319 318 318 318 318 319 318 315 316 317 317 314 312 311 309 309 311 309 305 303 306 310 310 310 310 310 310 310 309 309 309 309 310 310 309 307 307 307 305 304 303 302 302 302 302 303 304 305 305 305 306 307 308 309 310 311
312 314 315 316 318 321 321 320 324 324 320 321 325 324 321 322 323 323 323 322 321 322 321 322 322 321 321 321 321 322 321 319 319 318 316 316 316 315 316 317 317 315 312 310 309 309 308 305 303 304 308 310 311 310 310 310 310 309 308 308 308 308 309 308 307 306 305 304 303 302 301 301 302 302 303 304 305 306 307 307 307 307 308 308 309 310
312 313 315 316 318 321 322 321 323 324 322 321 324 324 322 322 322 322 323 322 320 320 320 321 321 321 321 320 321 322 320 318 319 318 316 316 315 313 314 315 316 315 312 308 306 306 304 303 304 307 309 310 310 310 311 311 310 308 308 308 307 307 308 306 305 304 303 302 302 302 301 301 302 302 303 305 306 306 307 308 308 308 308 308 309 309
312 312 314 316 318 319 321 322 322 324 325 323 324 322 320 320 321 321 323 323 321 320 320 319 319 320 320 319 321 322 319 318 319 318 317 318 316 312 312 313 314 314 309 304 302 303 303 303 305 307 309 309 309 311 311 310 309 308 308 307 306 306 305 303 302 302 301 301 301 301 301 301 302 303 304 305 306 307 307 307 308 307 307 308 307 307
312 312 312 315 317 318 320 322 322 324 325 325 324 321 320 322 324 324 324 324 321 320 320 319 319 320 319 319 321 321 319 320 321 318 318 320 318 314 312 311 311 310 305 302 302 303 304 305 306 307 308 308 309 310 310 309 309 308 306 305 305 303 301 300 301 301 301 301 301 301 301 301 301 302 304 305 306 307 307 307 307 307 306 306 306 305
312 312 312 313 315 316 318 321 322 322 323 323 322 320 320 322 324 325 326 325 322 320 319 319 319 319 319 320 321 321 320 320 320 318 319 320 318 315 312 310 310 311 307 304 304 305 306 306 306 306 306 307 309 309 309 309 308 307 305 304 301 300 300 300 301 301 301 300 300 301 301 301 301 302 303 305 306 305 305 305 305 305 305 304 304 304
312 313 313 313 314 315 316 319 320 320 323 324 322 319 319 321 323 324 326 326 324 322 319 319 319 318 319 321 320 319 318 317 318 322 324 321 317 316 315 311 309 309 306 304 305 306 306 306 306 306 306 307 308 308 308 308 307 305 304 302 299 300 301 301 301 300 299 299 300 301 301 302 302 302 303 304 305 304 303 303 304 304 304 303 303 302
315 315 314 313 314 315 316 318 318 319 323 324 320 318 319 322 323 323 322 323 326 323 319 319 319 319 320 321 319 318 317 317 318 322 324 322 318 316 316 315 313 311 307 304 304 305 304 304 304 305 305 305 306 307 307 307 306 304 302 300 300 302 302 301 300 299 299 299 300 301 302 302 302 302 303 303 303 303 303 303 303 303 303 302 301 301
315 316 316 315 316 316 317 318 319 319 319 318 317 318 320 321 323 322 319 321 327 328 324 321 319 319 320 320 318 317 317 317 317 318 318 319 318 316 315 316 316 313 308 304 302 302 302 301 300 301 303 304 305 306 307 306 305 303 301 300 301 302 302 300 298 298 298 299 299 301 302 302 302 302 303 303 303 303 303 303 302 302 301 301 300 299
315 317 317 316 317 317 317 318 319 320 318 316 317 320 319 319 320 321 319 321 325 327 325 321 319 318 318 318 317 317 317 317 317 316 316 316 315 315 315 317 316 314 309 303 300 300 301 299 297 299 301 302 304 305 305 306 304 301 300 301 302 302 300 299 297 297 298 299 300 301 302 302 303 303 302 303 303 303 302 302 301 300 299 299 298 298
313 315 316 315 316 318 319 319 320 320 317 315 315 316 316 317 317 316 317 318 319 321 321 320 321 321 317 316 317 317 316 316 316 315 316 315 314 314 315 314 311 308 303 299 296 298 299 298 296 296 297 299 302 303 303 304 303 300 300 301 301 301 300 298 297 297 298 299 299 300 301 301 302 302 302 302 301 302 301 300 299 298 297 296 296 296
314 315 314 314 317 318 318 318 319 317 315 316 316 315 314 315 316 314 313 314 316 319 320 320 323 325 319 315 315 315 315 316 315 314 314 314 314 314 313 311 306 301 298 296 294 295 297 296 295 294 294 295 298 300 301 302 302 301 300 300 300 300 298 297 297 298 298 298 299 299 300 300 300 300 301 300 300 301 301 300 300 298 296 295 295 295
316 316 313 314 318 317 314 314 316 315 314 314 315 315 314 315 315 316 314 313 315 318 318 316 319 321 318 313 313 314 314 314 314 315 313 312 313 313 311 309 306 300 297 296 294 293 294 294 292 291 290 291 295 298 299 300 300 300 301 300 299 298 297 296 297 297 297 297 298 298 299 299 298 298 299 298 298 299 299 299 299 298 296 295 294 294
314 314 313 314 315 314 311 311 313 315 315 314 313 314 314 314 314 315 315 316 316 316 314 313 314 315 316 315 313 312 313 313 313 314 312 310 311 309 306 304 303 299 295 293 292 293 293 292 291 290 289 289 291 294 296 297 298 299 299 299 297 296 296 296 296 296 296 297 297 297 297 298 297 297 296 296 296 296 296 296 297 296 296 296 296 295
312 312 315 315 314 313 312 311 312 314 314 313 313 314 315 315 313 313 313 314 315 315 316 316 314 313 315 315 312 311 313 314 312 312 311 310 308 305 302 301 299 295 292 291 291 292 293 291 291 290 288 288 289 291 293 295 296 297 298 297 296 295 295 295 296 295 295 296 295 295 296 296 296 296 295 294 294 295 295 295 296 296 296 296 296 296
311 312 315 316 314 312 312 311 313 313 312 312 315 317 318 317 314 312 312 311 312 313 315 317 316 313 311 311 310 312 315 314 311 309 309 308 306 303 300 298 295 291 290 291 291 291 291 291 290 289 287 287 287 289 290 292 294 295 296 296 296 295 295 294 294 294 293 293 293 293 294 294 294 294 294 293 293 293 293 293 294 294 294 294 293 292
310 310 312 313 312 312 310 311 314 313 311 313 317 318 318 317 315 314 313 311 311 311 311 313 314 312 312 313 311 310 313 313 309 307 307 305 301 298 295 294 293 291 290 290 291 290 289 289 288 287 286 285 287 288 289 290 291 292 294 295 295 295 294 293 292 291 291 291 292 292 292 292 292 292 292 292 292 292 291 290 289 289 290 290 290 289
Wind_Speed
4 4 5 8 11 11 11 10 6 4 7 10 8 7 6 5 4 4 5 6 4 5 7 10 11 16 15 11 12 9 5 7 9 8 8 8 7 6 7 9 11 11 13 21 25 24 28 33 33 33 34 34 36 37 37 36 38 39 38 38 39 39 38 37 37 36 36 35 35 34 35 36 35 34 33 32 33 35 36 34 32 31 29 28 28 30
3 7 11 14 13 12 12 12 9 6 6 8 7 6 5 5 5 5 4 5 3 4 6 7 9 15 17 12 9 5 5 9 11 9 10 11 10 8 9 11 11 10 11 16 17 19 25 30 31 33 33 34 36 38 38 38 39 40 40 41 40 39 39 39 39 38 38 38 37 36 36 36 36 36 36 35 36 36 36 36 35 33 31 30 29 29
4 9 17 16 11 10 11 12 12 9 6 6 5 5 5 4 3 5 4 3 3 4 5 5 6 12 16 13 9 7 9 11 10 10 12 12 11 11 11 11 10 9 10 11 12 16 24 28 30 31 32 35 38 38 38 39 39 40 41 42 41 40 40 41 40 40 39 39 38 36 34 33 33 34 36 36 35 35 36 37 37 36 34 32 31 30
7 12 17 12 6 9 10 10 12 9 6 5 4 5 5 3 3 4 4 2 3 3 2 3 4 7 11 10 9 10 11 11 11 12 13 11 12 14 13 11 10 12 13 12 12 14 20 25 28 29 32 35 36 36 37 39 40 40 42 43 42 41 41 42 41 41 39 37 36 35 33 31 29 30 32 32 33 34 36 36 37 38 37 35 33 32
11 8 8 9 7 10 10 9 11 8 6 5 5 6 5 5 7 5 3 1 1 2 0 1 4 6 8 10 12 9 7 10 13 11 12 12 13 13 12 12 13 14 14 14 14 13 16 22 26 31 35 36 35 35 38 41 42 42 42 42 41 41 41 41 41 41 39 36 34 33 31 28 27 28 29 30 33 35 36 37 38 38 38 37 35 34
12 4 11 13 10 11 10 10 13 11 7 6 8 9 7 8 8 5 3 3 3 4 3 1 3 6 6 9 12 7 3 8 9 8 13 14 13 12 12 14 14 14 13 13 14 13 15 21 27 31 35 35 35 37 40 42 44 44 42 41 40 40 40 41 41 40 39 37 35 34 32 29 28 28 31 34 37 37 38 39 39 38 38 38 37 36
6 7 12 13 12 13 12 10 13 13 8 7 9 11 9 9 7 5 5 4 1 4 3 2 5 6 5 5 9 6 5 9 8 7 13 13 11 12 12 14 14 13 13 12 12 12 14 20 24 27 32 35 36 40 42 42 42 42 41 41 41 40 40 40 40 39 39 38 37 36 36 35 33 32 34 37 37 37 39 39 38 39 39 39 39 38
7 12 11 12 13 12 10 9 13 14 9 5 7 13 11 8 7 5 6 4 3 2 3 1 3 5 6 6 8 7 7 10 10 11 13 11 11 13 13 14 14 14 14 12 12 12 14 19 24 27 32 36 39 41 41 41 41 41 42 42 41 41 40 39 39 39 40 40 38 38 37 37 37 36 35 34 34 35 35 36 37 38 39 40 40 40
11 16 16 18 16 11 13 15 14 14 9 4 6 12 10 7 5 4 5 3 1 2 4 4 3 3 7 5 5 5 6 9 12 13 13 12 13 14 14 15 14 14 14 12 13 14 14 20 26 30 33 37 40 41 41 42 42 42 42 40 39 40 40 39 39 40 41 41 40 38 37 37 37 38 35 32 31 32 32 34 36 36 37 39 41 42
7 13 17 19 15 13 16 14 14 16 9 3 7 8 4 4 4 4 4 2 2 2 7 7 5 3 7 5 4 3 4 8 10 10 11 13 13 12 12 14 13 12 11 11 12 13 16 22 28 32 33 36 40 42 41 41 41 40 39 38 38 40 41 40 40 41 42 43 41 39 39 38 37 35 33 31 31 31 31 33 35 35 37 38 39 41
1 3 8 11 11 11 9 8 13 17 10 5 6 7 6 3 4 3 2 3 1 6 9 9 10 6 6 4 5 5 5 8 9 9 10 11 11 11 11 11 11 10 9 9 10 11 16 23 28 30 31 34 38 40 38 37 37 37 37 38 40 42 41 40 41 42 43 43 43 43 41 39 37 33 31 32 32 32 32 34 36 36 37 38 38 40
1 3 4 6 6 5 7 5 5 8 10 8 6 6 4 1 2 1 1 2 4 8 6 10 12 9 8 6 3 5 6 6 8 9 11 11 11 10 10 9 9 9 9 9 8 9 12 16 20 24 27 31 34 34 34 35 36 36 36 37 39 41 41 41 41 42 43 43 44 45 43 41 39 35 33 33 34 34 33 35 36 35 36 37 38 39
6 5 6 5 3 7 11 7 1 2 5 5 5 7 5 3 2 4 3 4 7 6 2 6 10 7 10 8 4 9 11 10 11 11 11 11 9 9 8 8 8 7 8 8 8 9 9 10 13 19 24 28 29 30 33 35 35 35 36 37 38 40 42 41 41 41 42 43 45 45 44 42 40 37 36 35 35 36 35 36 35 35 35 36 38 40
6 6 8 6 2 6 11 9 5 3 5 7 8 9 8 6 5 7 6 5 6 4 1 3 4 3 6 5 7 13 16 14 11 11 10 9 9 10 9 8 7 6 7 7 8 8 9 9 13 18 24 27 28 31 34 35 36 36 36 36 37 40 41 39 40 40 41 43 45 44 43 42 40 38 38 38 38 37 36 36 36 36 37 37 39 41
11 8 11 13 8 11 15 15 15 13 11 13 10 9 9 7 5 7 7 7 6 1 1 3 3 4 4 3 7 11 12 11 9 9 9 8 9 9 9 8 7 7 7 6 7 8 8 11 15 19 22 25 28 31 33 34 35 35 35 36 38 40 40 38 38 39 39 41 42 41 41 41 40 40 39 39 39 39 38 37 36 37 37 38 39 39
13 8 10 17 13 17 21 16 14 12 9 8 5 6 10 6 4 3 3 6 4 1 2 4 3 4 5 6 8 7 9 9 10 10 8 9 9 7 8 9 8 8 8 6 7 8 9 12 16 18 21 24 26 28 30 31 32 33 35 36 38 41 40 36 37 38 39 40 39 38 40 40 40 40 40 40 40 40 38 37 36 37 37 36 37 37
9 6 10 16 10 19 24 16 15 13 8 5 5 8 7 4 5 4 1 0 4 2 4 3 6 6 3 8 11 10 12 13 11 8 7 9 8 6 8 8 8 9 8 6 6 8 9 10 14 18 22 24 26 28 29 32 34 35 37 37 37 39 38 35 36 38 39 39 38 38 40 41 41 41 41 42 41 39 37 36 36 37 36 36 37 37
5 3 9 16 14 20 21 16 17 11 5 6 9 8 4 3 2 4 1 1 3 3 4 5 12 8 1 6 6 7 14 17 13 7 6 9 7 6 8 8 9 9 7 6 7 7 7 8 12 18 21 25 28 31 33 35 37 37 38 38 38 39 38 37 38 39 41 41 41 41 42 43 43 42 42 42 41 38 36 36 38 37 37 37 37 37
3 1 4 12 14 13 10 11 12 4 2 2 7 8 6 3 4 4 4 3 3 5 3 5 11 7 7 9 4 6 13 16 16 10 7 10 10 8 8 9 10 8 5 6 7 7 7 7 12 16 19 22 25 27 30 32 32 34 36 37 38 40 40 41 41 41 42 43 43 43 43 42 42 41 41 41 40 37 36 38 38 38 38 38 37 37
3 3 3 5 7 8 7 8 10 6 1 2 2 6 4 3 5 6 6 4 5 6 5 4 5 5 8 9 9 11 11 10 11 9 8 11 10 9 9 9 9 7 6 7 7 8 7 8 12 14 15 16 16 19 21 23 25 29 33 34 36 38 39 39 39 40 41 41 41 40 39 39 39 40 40 39 38 38 39 40 39 38 39 38 38 38
1 3 3 1 2 7 8 8 14 15 9 5 7 9 8 5 2 3 6 4 3 5 5 4 6 7 6 5 11 15 12 11 13 11 10 10 9 9 9 9 8 7 7 7 7 7 7 7 9 10 11 12 13 15 16 18 21 24 28 30 32 34 34 34 35 36 37 37 37 37 37 37 38 38 38 37 37 38 40 40 39 38 38 37 38 39
3 2 3 2 3 9 10 12 18 21 18 14 12 13 14 11 6 5 7 3 2 4 4 3 8 10 5 6 10 14 14 16 16 12 9 8 8 10 9 9 8 7 8 7 6 6 5 5 5 5 8 9 11 13 14 15 17 18 21 24 27 29 30 30 30 31 32 33 33 36 37 37 36 35 35 35 36 37 38 38 39 38 38 38 39 38
4 3 5 3 4 5 5 6 8 14 17 10 4 8 12 10 8 8 9 5 3 5 4 3 6 8 4 9 11 12 13 13 12 8 7 8 9 9 8 8 8 7 7 6 5 5 4 4 4 5 6 8 10 11 12 13 14 15 17 19 21 24 25 26 27 27 28 29 30 32 33 34 33 33 33 33 35 36 37 37 37 37 37 38 38 38
3 3 6 3 2 2 4 4 4 1 9 6 1 4 7 9 11 8 6 5 5 8 6 3 7 8 3 4 7 10 10 9 7 7 8 9 7 7 8 8 7 7 6 5 4 4 4 4 4 5 8 10 11 11 11 12 13 14 16 16 18 20 20 21 22 22 23 24 26 27 28 29 30 30 30 31 33 34 35 35 35 35 36 36 36 36
5 4 5 3 2 0 2 2 1 0 5 6 5 7 7 11 11 4 1 2 4 10 11 7 10 11 3 1 3 6 8 7 6 6 8 8 7 7 7 6 6 6 5 5 5 4 4 5 5 7 9 11 12 13 13 14 15 16 16 17 18 19 18 18 19 19 20 22 23 24 25 26 26 27 28 29 30 31 32 32 33 33 33 34 34 34
6 5 5 6 8 8 7 8 7 8 7 6 9 13 14 18 18 10 6 7 8 13 13 10 12 9 1 2 2 3 6 8 7 6 6 7 7 7 6 6 6 6 6 6 6 5 5 6 6 7 9 11 12 13 15 15 16 17 17 18 19 20 20 20 19 20 21 21 22 22 23 23 24 24 25 26 26 27 27 28 28 29 30 30 31 31
3 5 7 8 9 8 7 5 4 8 13 13 17 22 22 23 24 18 11 10 12 13 11 12 16 11 2 3 5 4 6 8 6 5 6 7 8 7 7 7 6 5 6 6 6 5 5 6 7 7 10 12 14 15 15 15 16 16 16 17 17 19 20 20 20 20 20 21 21 22 22 22 22 22 22 23 23 23 23 22 23 23 24 26 27 28
3 6 11 13 15 10 1 1 1 7 16 22 24 25 24 22 22 18 14 15 14 10 9 13 17 16 10 5 5 6 6 6 7 9 10 10 9 8 6 6 6 6 6 6 6 7 7 8 7 7 9 13 14 15 15 15 14 14 14 14 14 15 16 17 17 18 19 20 21 22 22 21 21 21 21 22 22 22 22 21 20 19 18 20 23 25
4 7 11 14 18 15 4 1 2 6 12 19 23 26 26 23 23 22 22 21 17 12 14 17 16 17 14 7 8 11 9 9 10 9 7 5 4 5 6 6 7 8 7 7 8 8 8 8 7 7 9 12 14 14 15 15 15 15 14 14 13 14 15 15 16 17 18 19 21 21 21 20 20 20 20 21 21 21 21 21 20 19 18 18 18 20
4 6 9 11 15 17 11 5 4 6 10 14 16 19 22 23 25 27 26 26 22 16 17 17 13 15 16 14 16 15 8 6 5 3 2 3 3 5 7 8 9 9 8 9 10 9 9 8 8 7 8 11 14 16 17 17 17 17 17 16 15 16 17 17 18 18 18 19 20 19 19 19 19 20 20 20 20 21 22 22 22 22 22 22 21 20
5 5 9 9 8 12 14 11 7 7 10 14 16 16 17 19 21 23 22 22 19 16 18 19 14 16 17 14 15 12 6 4 4 4 6 7 6 7 8 9 10 9 9 10 10 10 9 7 7 7 7 11 17 19 19 20 18 18 18 17 18 19 18 19 20 21 21 20 19 18 18 18 19 19 19 19 18 18 18 19 20 21 22 22 23 22
5 3 6 7 4 7 12 14 13 10 10 13 16 16 17 17 18 19 20 20 19 19 23 20 16 18 14 7 8 8 9 12 13 10 9 8 9 10 10 10 10 10 10 11 10 10 9 9 9 9 10 15 19 21 21 21 19 19 20 20 21 20 20 21 22 22 22 21 20 20 20 19 18 18 18 18 18 17 17 17 18 19 20 19 20 20
4 4 4 5 5 7 9 14 15 11 8 10 13 18 21 22 22 21 21 22 22 21 19 18 19 17 7 7 8 9 12 17 19 15 13 11 10 10 10 10 10 11 12 12 11 12 11 10 11 12 15 19 22 22 22 21 21 21 21 21 21 21 23 24 24 23 23 22 22 22 22 21 20 19 18 17 16 17 18 18 17 17 18 18 17 18
4 5 3 4 4 5 7 11 10 9 10 9 11 20 26 26 26 24 23 26 25 19 14 14 16 12 4 9 14 13 13 16 16 15 14 12 10 9 10 12 12 12 13 11 11 12 12 11 12 15 20 23 23 22 20 20 21 20 19 20 20 22 24 25 24 24 23 23 23 23 22 21 20 18 16 12 11 12 15 16 16 15 14 14 13 13
3 4 3 3 2 2 4 7 6 8 9 5 3 13 22 23 23 23 24 25 21 17 17 17 19 19 14 13 14 12 12 12 10 11 14 13 11 10 11 13 14 13 12 11 11 12 11 11 12 15 20 25 26 24 22 22 23 21 20 20 21 23 24 24 24 24 24 23 23 22 20 18 17 15 13 11 10 10 11 12 13 14 13 13 12 12
3 3 2 2 3 2 4 6 6 4 2 4 2 7 12 13 14 16 19 23 22 23 24 24 28 29 20 13 9 7 7 7 6 10 12 12 12 13 13 15 16 16 15 13 12 13 15 17 19 22 26 29 28 26 25 25 24 22 20 19 21 23 23 24 24 24 24 24 22 21 18 16 15 14 12 12 12 12 12 11 11 13 13 14 14 13
5 3 2 2 3 3 3 5 3 3 3 3 4 7 13 17 20 19 18 22 25 24 21 21 27 25 17 14 11 5 4 3 6 10 10 10 13 13 13 15 17 17 14 13 16 20 24 27 29 29 30 29 28 28 28 26 24 22 21 20 21 22 23 24 25 24 23 22 20 19 17 15 15 14 13 14 14 13 13 13 13 13 13 13 13 13
6 5 3 3 3 2 2 2 2 4 7 8 9 12 16 19 17 13 11 16 16 16 16 20 25 24 22 19 11 7 6 3 10 11 9 10 12 11 12 16 17 14 11 14 17 19 22 25 28 29 28 26 26 28 28 26 24 23 22 22 22 23 23 23 23 21 20 20 19 18 16 15 14 14 14 14 14 13 13 13 12 12 11 11 11 11
6 4 3 2 2 2 2 2 3 4 7 7 7 9 10 8 8 9 5 14 15 16 19 22 25 27 26 18 9 8 6 7 15 13 8 11 13 13 15 19 17 13 13 18 21 21 23 25 24 24 23 22 24 26 26 26 25 24 23 23 22 22 21 22 22 20 20 20 19 18 16 15 14 14 14 13 13 13 12 11 10 9 9 9 9 8
6 4 3 4 4 3 3 3 2 3 6 6 4 3 7 11 13 11 8 17 15 15 17 21 26 30 25 12 8 8 10 14 17 9 9 14 16 14 14 17 16 14 14 18 22 23 24 24 22 20 21 23 25 25 25 25 25 24 23 21 21 21 22 22 21 19 19 18 17 17 16 15 15 14 13 12 12 12 12 11 10 10 9 9 10 9
3 3 3 5 5 5 6 4 2 3 6 5 2 4 10 13 10 10 14 12 8 13 16 20 25 24 15 8 8 9 15 18 13 3 9 14 16 14 15 17 18 17 15 17 22 21 20 20 21 21 23 23 23 23 25 26 24 22 21 19 20 21 21 19 17 16 16 16 16 17 17 16 15 14 13 12 12 11 11 11 10 10 10 10 11 10
3 2 3 5 5 4 4 3 3 5 5 5 7 8 11 10 6 11 10 2 5 12 14 16 17 12 8 10 12 14 17 17 13 8 9 13 15 17 18 17 17 14 10 12 18 19 18 18 17 18 18 19 20 22 25 25 23 21 20 19 20 21 19 16 15 16 16 16 16 18 18 16 15 15 15 15 13 12 12 12 11 10 10 10 11 11
5 3 2 3 4 3 3 4 4 5 3 7 11 6 6 7 6 5 3 3 1 7 9 11 13 11 11 14 16 17 17 17 17 17 14 12 14 16 17 17 17 13 9 10 14 19 20 17 15 16 17 17 19 21 23 24 22 20 20 20 20 19 16 15 16 17 17 18 19 20 19 18 18 17 17 17 16 14 14 14 13 12 12 12 12 12
3 4 2 3 3 3 3 5 4 3 3 8 11 6 7 11 6 1 4 7 5 4 5 7 10 11 13 14 16 17 17 18 20 19 13 11 14 16 13 13 13 11 10 11 15 20 22 18 16 16 16 16 19 20 21 23 22 21 20 20 19 18 17 17 18 19 20 20 21 22 22 21 20 19 18 18 18 17 16 16 15 14 14 14 15 15
5 5 4 4 4 4 5 6 4 3 4 5 3 2 6 11 7 3 4 8 7 5 5 6 7 10 12 14 14 14 14 15 17 15 11 13 17 15 11 9 9 10 10 11 15 20 21 19 19 18 16 15 18 20 21 22 22 22 21 20 20 21 21 21 22 22 23 23 24 24 23 22 21 20 19 18 18 19 18 18 18 17 16 16 16 16
4 3 2 2 3 4 6 7 8 9 7 5 6 7 7 9 7 5 5 7 7 5 5 6 8 11 11 11 11 12 12 13 15 14 11 13 15 11 8 7 7 9 10 12 15 18 19 19 18 18 16 15 16 19 20 21 21 22 22 22 23 23 23 24 25 25 25 25 25 25 24 23 23 21 20 19 19 19 19 19 19 19 19 18 17 15
3 3 2 2 4 5 6 8 11 14 13 8 9 12 12 10 7 5 5 7 7 6 6 7 8 8 7 7 9 12 13 13 13 12 9 10 11 10 9 9 8 9 10 13 17 20 20 19 16 15 16 16 17 18 20 20 20 21 23 24 25 25 25 26 27 27 26 26 26 25 25 25 25 24 22 21 20 20 20 20 20 20 20 19 18 16
3 4 4 4 5 6 9 11 9 10 11 8 7 10 11 10 9 7 7 8 8 8 7 7 6 6 5 6 8 10 11 11 10 10 9 8 8 8 8 8 8 9 11 14 18 21 20 18 16 15 16 17 18 19 20 21 20 22 24 26 26 27 27 27 27 27 27 26 26 26 25 25 25 24 23 22 21 20 19 19 18 18 18 17 15 15
1 2 4 5 6 7 12 14 9 9 12 9 7 8 8 9 11 12 11 10 9 9 10 9 7 7 7 7 7 7 9 11 10 10 9 8 8 8 8 9 9 10 13 16 19 20 19 18 18 17 18 18 19 19 19 20 21 23 24 25 26 27 28 28 27 27 26 26 26 25 24 24 24 23 22 21 20 19 18 17 15 14 14 13 11 10
1 3 5 5 5 8 12 11 6 8 11 7 6 9 11 11 11 12 13 12 11 11 12 11 10 8 7 8 7 8 10 11 10 10 11 10 10 10 10 10 9 8 11 15 16 16 16 16 17 19 20 18 18 18 19 20 21 22 23 24 25 27 28 27 26 25 25 24 24 23 23 23 22 22 22 21 20 19 17 14 12 11 11 11 10 8
6 8 7 6 7 11 15 9 7 6 11 7 5 8 10 9 9 10 12 13 14 13 12 11 11 10 8 7 7 8 10 11 9 10 9 7 6 7 8 9 9 9 12 15 15 13 14 14 16 20 21 18 17 19 19 19 20 21 22 23 25 26 27 27 25 23 22 22 22 22 22 22 22 22 22 21 20 20 19 16 14 11 11 11 10 9
Wind_Direction
175 174 197 203 197 191 182 173 165 134 152 166 175 190 191 192 234 238 234 257 204 189 233 217 228 252 256 250 248 258 252 237 243 241 246 249 247 239 229 231 228 226 230 232 231 222 216 217 216 215 214 213 214 214 214 214 214 214 213 213 214 216 216 215 214 213 213 212 211 211 212 215 217 220 222 221 220 218 221 223 223 222 221 219 217 216
195 197 208 211 198 185 179 175 173 171 168 173 177 187 197 199 233 245 235 251 187 180 249 232 231 253 256 252 254 259 254 247 238 234 244 244 244 243 234 234 230 230 236 236 234 222 217 217 215 214 212 211 212 212 212 212 214 215 214 216 216 215 214 215 215 214 214 214 213 212 213 216 217 219 220 221 220 219 220 223 223 224 223 223 221 220
199 219 214 208 194 181 183 179 180 186 182 177 168 176 200 198 231 271 266 251 173 181 253 245 225 254 261 260 260 249 239 247 241 230 237 237 238 241 236 235 232 235 239 234 230 221 217 216 213 212 211 212 214 213 212 212 214 214 214 217 216 214 214 215 216 216 216 217 217 217 217 218 219 221 223 224 224 223 223 223 224 224 225 226 225 224
200 225 214 198 177 179 185 182 182 190 197 189 157 174 207 174 166 253 267 237 194 188 210 229 231 259 271 275 264 243 233 248 250 238 238 234 232 237 237 235 229 230 234 231 227 220 215 215 212 210 211 214 215 214 213 212 213 213 214 216 215 214 214 215 216 217 218 219 219 220 222 223 224 226 228 229 229 228 227 227 226 225 225 227 228 228
223 225 176 165 177 181 180 181 183 190 209 209 189 189 196 179 186 215 232 173 355 301 250 287 298 274 257 263 262 248 225 243 250 246 249 244 236 241 243 240 233 231 232 228 225 219 211 212 211 209 211 213 214 214 214 213 214 214 215 216 215 214 214 215 216 217 217 217 217 217 219 223 225 228 229 229 229 229 229 229 228 226 225 226 229 230
237 188 144 172 183 176 179 184 187 189 196 215 213 200 182 182 198 192 156 107 34 306 271 194 278 275 253 256 261 262 234 247 251 243 249 249 243 242 244 243 239 236 236 230 226 219 210 212 211 210 211 211 212 215 217 217 216 216 216 216 215 215 215 216 217 217 216 214 213 212 212 215 218 220 222 224 226 225 226 228 228 227 226 226 227 229
233 181 170 178 173 178 191 194 194 186 186 218 204 187 181 175 183 168 145 139 166 254 277 166 213 270 296 271 260 260 249 256 259 244 246 249 246 240 238 241 238 235 236 233 230 222 212 212 211 211 211 209 212 215 218 219 219 219 218 217 216 215 216 216 216 216 215 214 214 214 215 217 218 219 223 225 226 226 227 228 228 228 227 227 227 228
183 184 179 169 172 186 196 202 200 186 189 228 170 166 183 170 164 165 151 177 219 257 300 194 182 273 281 256 254 253 250 265 266 253 250 246 241 241 239 239 235 233 231 228 229 223 215 213 211 212 211 211 214 216 217 218 219 220 219 218 217 216 217 216 215 216 215 215 216 217 219 221 223 225 227 228 228 229 229 229 228 228 228 228 228 229
182 187 180 172 179 192 201 202 191 180 199 250 153 162 182 160 144 140 137 176 317 9 269 220 144 275 266 251 265 255 236 253 257 252 255 251 242 239 239 240 237 233 230 224 224 224 218 214 213 214 213 213 215 217 217 218 219 220 220 219 217 217 218 217 216 216 217 218 218 219 221 223 226 229 231 231 232 232 230 230 230 228 229 229 230 230
180 197 187 177 184 200 203 193 171 177 202 230 147 135 120 105 90 86 112 116 56 289 242 207 161 237 264 237 220 236 218 235 250 249 247 248 248 244 242 244 243 239 234 227 226 225 220 217 215 216 215 214 216 218 219 219 219 219 218 218 218 219 219 218 218 217 218 219 219 221 222 224 227 229 230 232 233 233 231 231 231 229 229 229 229 230
119 189 180 184 202 203 190 172 174 181 171 125 117 99 73 47 43 53 74 77 85 257 238 192 170 199 266 247 197 215 214 214 232 247 249 250 255 254 247 247 246 243 237 229 228 227 224 221 218 216 215 216 217 218 219 219 218 218 217 217 218 220 220 219 219 218 220 220 220 222 224 225 227 226 227 229 231 231 229 229 230 229 229 228 228 229
173 109 156 206 215 160 132 153 184 170 149 128 116 115 114 61 23 31 36 94 219 252 233 177 162 177 237 249 214 244 250 230 227 238 249 249 250 252 252 253 248 243 239 230 226 227 226 222 218 216 217 219 219 217 216 218 218 217 217 217 218 221 220 219 219 219 220 220 221 223 224 226 227 225 225 226 228 229 227 229 229 228 228 228 228 229
205 179 176 193 191 148 153 162 74 77 171 158 134 142 153 171 195 204 205 194 219 257 292 160 154 182 237 251 257 261 260 246 233 232 240 246 253 263 263 260 255 251 247 234 226 224 221 219 213 211 214 218 218 216 215 217 217 216 217 217 218 221 221 219 219 220 220 220 222 224 224 225 227 226 226 227 229 229 228 229 229 227 227 227 228 228
201 208 181 165 155 172 172 166 157 166 193 189 172 169 172 172 193 207 206 216 228 250 327 152 162 233 270 271 236 243 252 248 241 241 242 242 249 259 266 268 270 272 258 239 232 226 219 218 214 210 212 214 215 215 216 216 216 216 217 217 219 223 224 220 220 221 221 221 223 224 224 225 226 226 227 228 230 231 230 230 230 229 229 229 230 230
191 208 182 175 171 171 182 188 183 171 179 195 185 178 186 181 194 202 197 212 222 225 176 183 193 202 213 247 226 229 253 265 262 258 255 252 249 250 264 271 270 273 265 244 235 233 226 222 218 214 214 215 216 216 216 216 216 215 216 216 218 223 225 222 221 222 222 224 225 224 225 226 226 227 228 230 231 232 232 232 232 233 232 233 234 235
201 222 179 180 174 170 186 197 180 161 178 200 165 180 205 191 174 180 191 201 181 136 206 201 234 217 208 277 279 255 264 266 257 260 264 265 262 252 257 260 257 261 260 245 232 234 235 228 221 217 216 217 218 218 217 217 216 215 217 217 219 223 224 222 222 223 225 227 227 226 227 228 228 229 230 231 233 233 233 234 234 236 237 237 238 239
206 236 177 178 176 182 190 187 171 167 174 183 172 193 201 144 131 132 233 107 95 191 226 200 253 277 305 285 275 262 270 270 253 245 248 255 258 251 248 250 253 254 249 241 233 232 234 232 225 220 217 217 217 218 219 219 219 217 218 218 219 223 224 222 222 224 225 227 228 229 229 229 229 229 230 232 234 235 235 235 237 238 239 240 241 241
185 226 185 181 186 194 192 177 176 180 152 160 185 185 146 80 96 102 163 25 76 222 243 214 232 245 262 260 258 232 249 262 257 235 242 259 257 248 250 247 247 248 245 249 251 248 246 240 233 227 223 220 219 220 222 223 223 221 220 220 219 221 222 222 222 223 225 226 227 228 229 230 230 230 232 233 234 236 236 236 237 238 239 240 241 242
177 242 215 195 195 192 176 165 179 194 33 163 183 167 143 183 209 159 179 192 169 221 259 234 231 226 205 225 236 208 222 243 254 253 255 259 250 241 247 250 251 252 251 256 251 248 248 241 234 229 226 226 224 223 225 226 225 222 221 221 221 222 224 224 223 224 225 225 226 228 229 230 230 231 232 234 234 235 235 237 238 237 238 240 240 241
202 198 220 212 197 173 160 176 187 191 278 345 150 168 173 196 196 188 195 188 177 211 248 249 234 233 221 208 202 219 225 227 243 252 246 244 241 235 234 242 252 252 244 245 241 238 239 238 237 235 232 232 229 228 228 227 225 223 222 222 221 224 225 225 224 224 225 226 226 228 229 230 231 232 233 234 234 234 235 237 238 237 239 239 240 241
164 198 199 210 182 174 180 193 187 180 178 169 173 185 197 203 185 198 207 183 152 197 231 255 252 252 244 193 190 212 227 230 234 242 240 238 239 237 234 235 244 250 245 242 239 235 235 239 241 238 236 235 231 230 227 225 226 225 223 222 222 224 224 225 225 225 226 227 227 228 230 231 232 232 233 233 234 234 236 237 238 239 240 240 241 242
168 185 180 180 203 192 194 199 194 187 181 181 188 189 191 192 174 185 210 193 110 196 191 210 258 262 232 182 193 203 212 226 233 235 235 238 239 237 237 233 231 236 240 238 234 236 242 244 232 217 223 227 226 227 225 222 224 224 224 224 225 226 227 228 228 227 228 229 228 229 231 232 233 234 234 235 235 236 237 238 239 240 241 242 243 243
148 149 178 201 226 213 221 223 204 194 190 189 195 189 190 191 179 189 209 199 188 211 175 159 266 276 204 176 195 202 209 224 227 216 220 234 239 238 241 240 235 234 239 244 245 250 257 249 225 209 219 225 226 227 223 221 222 222 224 225 226 229 230 231 231 231 232 231 231 232 233 234 235 236 236 237 238 239 240 241 242 243 242 243 244 244
109 149 181 193 260 307 322 323 360 194 197 202 273 191 185 192 195 199 199 180 192 208 195 204 256 264 237 191 206 206 209 224 218 198 211 230 240 243 242 238 229 229 242 256 260 265 272 263 243 233 231 231 233 233 230 228 227 226 226 226 227 229 231 232 232 232 232 232 233 234 235 236 237 237 238 239 240 242 243 245 245 245 245 245 245 245
179 174 165 161 177 289 333 286 340 41 190 193 205 203 192 194 197 196 109 157 208 212 200 205 241 250 265 3 251 222 213 227 233 213 212 222 231 232 233 234 229 231 248 257 256 260 264 258 244 237 236 234 236 237 237 238 238 238 236 233 233 233 231 231 230 229 230 230 231 233 234 236 237 238 239 240 241 243 245 246 246 246 246 246 245 245
193 176 164 182 189 190 196 202 198 187 180 179 191 197 197 194 191 190 197 196 208 213 202 202 231 249 331 97 190 208 209 225 241 235 222 226 230 220 214 223 226 228 235 238 240 242 245 250 249 244 243 241 239 239 239 241 242 242 242 239 237 236 233 230 229 229 229 228 229 231 232 234 235 237 238 239 240 241 242 243 245 245 246 245 245 245
177 187 190 209 220 211 200 216 206 174 176 184 191 196 199 198 194 194 200 203 210 215 209 213 227 235 218 182 201 199 208 221 226 214 211 223 228 218 213 220 220 223 233 233 233 237 242 253 251 245 244 243 242 241 240 240 240 239 239 236 232 231 231 229 228 228 228 227 227 228 229 230 231 232 233 233 233 234 234 236 238 240 243 243 243 243
136 200 196 208 232 238 207 349 257 174 185 193 193 195 200 199 196 198 207 211 211 217 225 226 228 231 229 226 243 238 219 218 215 203 200 205 207 205 203 210 219 232 241 237 232 228 228 238 242 240 241 238 236 237 235 234 234 233 234 232 224 221 221 220 222 224 224 225 224 225 225 224 225 226 227 228 229 229 228 227 229 231 235 236 237 238
137 207 196 199 226 235 234 305 237 191 204 209 201 196 196 194 192 200 211 215 208 211 228 225 219 228 233 224 235 235 210 203 213 208 202 201 194 194 190 193 212 224 225 221 223 222 219 226 229 227 231 229 227 228 228 227 227 225 224 221 214 211 210 210 215 217 219 221 222 222 223 223 225 227 228 230 231 231 231 230 230 230 231 233 234 236
160 200 187 191 224 234 232 240 220 199 215 225 220 209 200 195 195 200 208 215 212 214 233 234 224 234 234 216 219 225 202 188 204 174 189 216 202 198 200 205 216 219 217 215 216 218 218 218 219 219 222 222 219 218 219 221 220 218 217 213 208 208 208 209 214 216 217 219 220 220 220 221 224 228 231 234 236 237 237 236 236 237 238 239 241 244
209 191 165 172 220 235 227 227 228 215 213 216 216 216 210 205 207 210 212 216 215 218 235 238 234 241 238 217 214 216 186 194 223 191 200 217 210 203 205 213 219 218 218 217 215 218 218 216 220 219 217 218 216 212 213 215 216 216 216 213 210 210 208 209 215 217 217 219 218 216 216 218 223 229 232 234 235 236 237 237 236 237 238 239 240 242
199 172 143 152 198 231 218 218 224 223 224 224 215 208 207 207 212 216 216 215 208 210 226 233 233 241 239 197 180 185 182 211 227 218 212 216 210 207 209 215 219 221 221 216 212 216 215 213 217 214 212 217 215 211 211 212 212 214 216 215 213 211 209 211 215 217 217 218 217 216 217 220 225 231 234 234 231 229 230 232 232 233 235 238 239 241
154 145 136 151 195 231 212 208 217 217 222 231 214 202 202 204 209 214 218 220 213 206 214 222 228 238 222 145 176 190 187 207 220 217 217 218 209 210 220 224 223 223 222 213 207 210 211 211 213 210 209 211 211 212 213 210 210 214 216 216 214 211 211 212 214 216 217 217 218 219 222 225 228 232 236 237 233 228 227 228 230 232 235 239 241 242
131 144 150 148 194 238 200 190 209 220 221 225 208 202 203 203 204 209 216 221 218 214 221 232 242 248 177 165 207 211 199 209 217 216 220 222 211 206 219 232 232 227 225 216 207 209 210 210 213 214 213 212 211 213 215 213 214 218 219 217 215 212 211 211 213 215 217 218 220 223 225 227 228 229 229 229 224 223 225 228 230 231 231 234 237 239
127 146 160 152 182 222 158 168 205 222 225 247 222 201 207 209 207 211 223 226 220 221 233 244 252 246 222 209 220 217 211 216 215 214 219 221 216 206 212 232 239 233 225 216 211 213 213 210 210 214 216 217 216 217 217 216 217 219 218 216 213 211 210 210 212 214 217 220 222 224 223 220 219 217 215 213 211 214 219 223 226 228 229 232 236 240
144 158 168 163 181 176 145 179 217 246 274 321 319 186 194 213 213 214 232 236 223 216 218 225 236 238 231 227 229 213 206 208 214 223 220 212 211 207 209 223 233 231 223 212 204 207 209 208 206 209 213 216 218 218 218 217 216 215 214 212 210 210 209 210 212 214 216 218 219 219 217 212 210 210 209 210 211 213 214 212 213 216 217 221 225 229
148 159 187 194 197 193 175 193 231 325 322 272 237 182 181 198 203 202 220 231 223 216 216 225 238 243 241 235 224 179 136 172 240 242 226 213 217 215 216 226 231 230 225 212 209 212 212 210 208 209 213 216 218 219 217 215 213 209 208 207 207 208 207 208 211 214 214 214 214 214 213 209 208 207 207 210 213 214 214 213 215 217 217 219 222 224
163 172 182 202 208 178 162 205 238 264 248 232 218 205 199 202 198 190 218 240 228 208 208 224 236 240 238 232 210 134 114 208 249 242 215 212 226 222 226 238 238 231 218 210 214 219 218 214 211 213 216 216 216 217 213 209 206 202 202 203 202 203 203 205 210 211 210 210 209 209 208 206 207 208 209 212 213 213 215 216 218 220 220 222 225 226
172 168 147 187 230 171 163 223 224 229 254 259 236 215 197 170 119 110 204 248 232 198 199 216 228 234 234 225 180 133 144 224 247 242 192 193 216 213 217 233 236 228 217 213 212 212 215 216 214 215 216 214 213 212 206 202 199 195 196 199 198 198 200 203 207 208 208 208 206 204 203 200 200 205 210 213 213 215 217 217 216 217 217 218 219 220
180 177 163 196 227 211 198 237 242 231 261 286 292 219 155 128 109 118 206 244 231 197 195 209 223 232 233 210 155 167 198 224 243 238 165 190 216 212 213 228 230 223 220 216 213 213 213 211 206 205 208 210 210 206 198 194 192 190 193 195 194 197 203 206 207 207 207 205 199 197 197 194 194 198 202 210 216 217 216 213 210 211 213 210 208 207
180 182 184 202 222 216 210 233 268 256 249 246 239 179 144 123 119 171 216 239 206 179 193 209 222 232 229 185 165 203 222 229 238 196 152 192 216 216 218 228 228 225 220 210 207 208 204 200 199 201 205 207 203 197 192 188 185 187 191 191 194 202 208 208 205 201 198 196 192 191 191 190 192 191 190 201 212 212 207 204 203 203 202 200 199 197
154 168 188 201 215 213 210 227 259 270 250 180 164 169 152 141 172 209 223 253 136 172 198 215 222 222 199 191 204 220 231 236 237 223 196 200 209 215 220 225 226 227 218 198 197 195 187 184 190 193 194 194 191 189 187 185 183 184 187 191 200 207 207 202 196 190 187 186 185 186 187 186 188 187 186 193 202 201 196 193 193 193 191 190 190 189
162 167 187 194 195 194 196 191 207 261 260 141 141 161 186 192 208 229 278 344 141 183 197 211 216 206 193 207 219 224 231 237 236 231 222 211 214 219 219 219 219 215 194 179 187 187 179 172 173 176 178 180 182 184 185 184 182 182 187 196 203 202 195 189 184 179 178 179 179 181 184 185 184 185 186 189 191 193 191 188 185 184 183 182 183 182
175 163 174 201 186 172 202 208 204 236 207 152 146 164 217 223 218 222 271 264 251 215 197 207 221 218 210 216 224 227 229 233 236 234 221 214 228 230 223 219 216 206 194 188 187 183 176 167 165 168 171 175 179 182 185 186 183 182 189 197 195 187 180 176 173 172 174 176 178 180 182 184 185 186 188 189 189 189 187 184 181 180 180 181 181 179
212 189 186 206 200 182 206 229 241 232 194 190 215 272 249 247 261 343 303 266 259 245 212 202 219 227 224 223 226 231 233 234 239 235 212 212 230 230 219 212 202 191 188 181 177 178 175 168 165 163 164 173 179 181 185 188 187 185 186 188 183 177 173 169 168 171 173 174 177 179 179 181 184 186 189 189 188 188 185 182 180 178 179 181 181 180
242 210 178 196 215 222 227 234 250 255 243 242 278 289 276 266 277 319 315 284 265 251 228 211 217 225 225 220 222 232 237 235 238 235 214 216 229 222 198 192 184 176 175 168 168 171 167 162 161 159 160 170 177 181 184 189 192 189 184 179 176 174 172 169 168 171 172 173 175 176 176 177 179 182 186 187 188 189 189 186 183 180 179 180 182 182
274 225 208 213 210 219 233 229 235 248 250 241 250 262 266 265 263 266 272 271 269 261 247 242 246 244 234 218 214 226 235 236 239 239 221 213 221 210 191 185 179 173 173 170 167 164 159 157 158 160 164 169 175 181 183 185 190 190 182 176 173 171 170 170 169 169 170 171 172 174 175 177 176 176 180 182 184 187 188 186 185 181 179 180 181 180
247 199 196 233 229 227 246 245 238 250 258 247 239 251 258 264 270 270 261 257 264 265 254 244 243 244 241 230 218 224 238 241 237 235 226 213 211 205 190 183 179 173 172 170 166 164 162 162 165 167 168 169 171 176 178 178 181 182 177 173 171 170 169 170 170 168 168 169 170 172 175 177 176 175 177 179 181 184 183 183 185 183 181 183 184 183
115 153 186 227 233 239 256 258 256 271 277 268 251 251 252 256 263 268 267 264 265 268 267 258 238 217 221 234 222 211 232 241 230 219 215 205 196 193 187 182 178 172 169 169 168 168 167 166 168 169 166 165 166 166 168 169 170 171 172 171 171 170 170 170 170 169 168 169 170 171 173 176 177 177 177 176 177 179 179 181 183 183 181 181 181 183
154 208 211 218 223 241 253 245 221 253 270 256 223 236 243 243 248 257 265 268 265 259 260 263 257 238 225 233 223 204 221 234 219 201 201 199 195 192 184 175 169 162 163 164 165 167 169 168 168 164 158 157 158 157 157 158 160 164 169 171 173 174 172 170 168 167 166 169 170 171 173 174 175 177 177 175 172 170 168 167 168 171 174 173 170 169
223 226 219 219 228 243 251 235 174 215 256 244 205 230 243 246 252 258 261 263 263 259 255 257 260 258 246 234 222 211 222 228 207 190 194 192 180 170 162 163 163 156 159 162 161 161 161 158 158 155 150 149 151 152 152 153 156 161 168 171 175 178 175 170 166 163 165 169 171 172 173 173 173 174 174 172 170 165 158 151 147 151 159 162 160 157